#Datum;Uhrzeit;WR;Pac;DaySum;Status;WR;Pac;DaySum;Status;Pdc1;Udc;Temp;WR;Pac;DaySum;Status;Pdc1;Udc;Temp;WR;Pac;DaySum;Status;Pdc1;Udc;Temp;WR;Pac;DaySum;Status;Pdc1;Pdc2;Udc1;Udc2;Temp;WR;Pac;DaySum;Status;Pdc1;Pdc2;Udc1;Udc2;Temp;WR;Pac;DaySum;Status;Pdc1;Udc;Temp;WR;Pac;DaySum;Status;Pdc1;Udc;Temp;WR;Pac;DaySum;Status;Pdc1;Udc;Temp
23.02.19;23:55:00;1;360;13562;0;2;0;26022;0;0;0;0;3;0;16669;0;0;0;0;4;0;24187;0;0;0;0;5;0;61791;0;0;0;0;0;0;6;0;46998;0;0;0;0;0;0;7;0;40810;0;0;0;0;8;0;39862;0;0;0;0;9;0;21571;0;0;0;0
23.02.19;23:50:00;1;360;13532;0;2;0;26022;0;0;0;0;3;0;16669;0;0;0;0;4;0;24187;0;0;0;0;5;0;61791;0;0;0;0;0;0;6;0;46998;0;0;0;0;0;0;7;0;40810;0;0;0;0;8;0;39862;0;0;0;0;9;0;21571;0;0;0;0
23.02.19;23:45:00;1;661;13502;0;2;0;26022;0;0;0;0;3;0;16669;0;0;0;0;4;0;24187;0;0;0;0;5;0;61791;0;0;0;0;0;0;6;0;46998;0;0;0;0;0;0;7;0;40810;0;0;0;0;8;0;39862;0;0;0;0;9;0;21571;0;0;0;0
23.02.19;23:40:00;1;365;13445;0;2;0;26022;0;0;0;0;3;0;16669;0;0;0;0;4;0;24187;0;0;0;0;5;0;61791;0;0;0;0;0;0;6;0;46998;0;0;0;0;0;0;7;0;40810;0;0;0;0;8;0;39862;0;0;0;0;9;0;21571;0;0;0;0
23.02.19;23:35:00;1;395;13415;0;2;0;26022;0;0;0;0;3;0;16669;0;0;0;0;4;0;24187;0;0;0;0;5;0;61791;0;0;0;0;0;0;6;0;46998;0;0;0;0;0;0;7;0;40810;0;0;0;0;8;0;39862;0;0;0;0;9;0;21571;0;0;0;0
23.02.19;23:30:00;1;386;13381;0;2;0;26022;0;0;0;0;3;0;16669;0;0;0;0;4;0;24187;0;0;0;0;5;0;61791;0;0;0;0;0;0;6;0;46998;0;0;0;0;0;0;7;0;40810;0;0;0;0;8;0;39862;0;0;0;0;9;0;21571;0;0;0;0
23.02.19;23:25:00;1;542;13349;0;2;0;26022;0;0;0;0;3;0;16669;0;0;0;0;4;0;24187;0;0;0;0;5;0;61791;0;0;0;0;0;0;6;0;46998;0;0;0;0;0;0;7;0;40810;0;0;0;0;8;0;39862;0;0;0;0;9;0;21571;0;0;0;0
23.02.19;23:20:00;1;297;13295;0;2;0;26022;0;0;0;0;3;0;16669;0;0;0;0;4;0;24187;0;0;0;0;5;0;61791;0;0;0;0;0;0;6;0;46998;0;0;0;0;0;0;7;0;40810;0;0;0;0;8;0;39862;0;0;0;0;9;0;21571;0;0;0;0
23.02.19;23:15:00;1;297;13270;0;2;0;26022;0;0;0;0;3;0;16669;0;0;0;0;4;0;24187;0;0;0;0;5;0;61791;0;0;0;0;0;0;6;0;46998;0;0;0;0;0;0;7;0;40810;0;0;0;0;8;0;39862;0;0;0;0;9;0;21571;0;0;0;0
23.02.19;23:10:00;1;297;13245;0;2;0;26022;0;0;0;0;3;0;16669;0;0;0;0;4;0;24187;0;0;0;0;5;0;61791;0;0;0;0;0;0;6;0;46998;0;0;0;0;0;0;7;0;40810;0;0;0;0;8;0;39862;0;0;0;0;9;0;21571;0;0;0;0
23.02.19;23:05:00;1;585;13220;0;2;0;26022;0;0;0;0;3;0;16669;0;0;0;0;4;0;24187;0;0;0;0;5;0;61791;0;0;0;0;0;0;6;0;46998;0;0;0;0;0;0;7;0;40810;0;0;0;0;8;0;39862;0;0;0;0;9;0;21571;0;0;0;0
23.02.19;23:00:00;1;297;13170;0;2;0;26022;0;0;0;0;3;0;16669;0;0;0;0;4;0;24187;0;0;0;0;5;0;61791;0;0;0;0;0;0;6;0;46998;0;0;0;0;0;0;7;0;40810;0;0;0;0;8;0;39862;0;0;0;0;9;0;21571;0;0;0;0
23.02.19;22:55:00;1;297;13145;0;2;0;26022;0;0;0;0;3;0;16669;0;0;0;0;4;0;24187;0;0;0;0;5;0;61791;2;0;0;0;0;0;6;0;46998;2;0;0;0;0;0;7;0;40810;0;0;0;0;8;0;39862;0;0;0;0;9;0;21571;0;0;0;0
23.02.19;22:50:00;1;315;13120;0;2;0;26022;0;0;0;0;3;0;16669;0;0;0;0;4;0;24187;0;0;0;0;5;0;61791;2;0;0;0;0;0;6;0;46998;2;0;0;0;0;0;7;0;40810;0;0;0;0;8;0;39862;0;0;0;0;9;0;21571;0;0;0;0
23.02.19;22:45:00;1;519;13094;0;2;0;26022;0;0;0;0;3;0;16669;0;0;0;0;4;0;24187;0;0;0;0;5;0;61791;2;0;0;0;0;0;6;0;46998;2;0;0;0;0;0;7;0;40810;0;0;0;0;8;0;39862;0;0;0;0;9;0;21571;0;0;0;0
23.02.19;22:40:00;1;389;13042;0;2;0;26022;0;0;0;0;3;0;16669;0;0;0;0;4;0;24187;0;0;0;0;5;0;61791;2;0;0;0;0;0;6;0;46998;2;0;0;0;0;0;7;0;40810;0;0;0;0;8;0;39862;0;0;0;0;9;0;21571;0;0;0;0
23.02.19;22:35:00;1;339;13013;0;2;0;26022;0;0;0;0;3;0;16669;0;0;0;0;4;0;24187;0;0;0;0;5;0;61791;2;0;0;0;0;0;6;0;46998;2;0;0;0;0;0;7;0;40810;0;0;0;0;8;0;39862;0;0;0;0;9;0;21571;0;0;0;0
23.02.19;22:30:00;1;350;12985;0;2;0;26022;0;0;0;0;3;0;16669;0;0;0;0;4;0;24187;0;0;0;0;5;0;61791;2;0;0;0;0;0;6;0;46998;2;0;0;0;0;0;7;0;40810;0;0;0;0;8;0;39862;0;0;0;0;9;0;21571;0;0;0;0
23.02.19;22:25:00;1;281;12957;0;2;0;26022;0;0;0;0;3;0;16669;0;0;0;0;4;0;24187;0;0;0;0;5;0;61791;2;0;0;0;0;0;6;0;46998;2;0;0;0;0;0;7;0;40810;0;0;0;0;8;0;39862;0;0;0;0;9;0;21571;0;0;0;0
23.02.19;22:20:00;1;388;12920;0;2;0;26022;0;0;0;0;3;0;16669;0;0;0;0;4;0;24187;0;0;0;0;5;0;61791;2;0;0;0;0;0;6;0;46998;2;0;0;0;0;0;7;0;40810;0;0;0;0;8;0;39862;0;0;0;0;9;0;21571;0;0;0;0
23.02.19;22:15:00;1;211;12890;0;2;0;26022;0;0;0;0;3;0;16669;0;0;0;0;4;0;24187;0;0;0;0;5;0;61791;2;0;0;0;0;0;6;0;46998;2;0;0;0;0;0;7;0;40810;0;0;0;0;8;0;39862;0;0;0;0;9;0;21571;0;0;0;0
23.02.19;22:10:00;1;212;12873;0;2;0;26022;0;0;0;0;3;0;16669;0;0;0;0;4;0;24187;0;0;0;0;5;0;61791;2;0;0;0;0;0;6;0;46998;2;0;0;0;0;0;7;0;40810;0;0;0;0;8;0;39862;0;0;0;0;9;0;21571;0;0;0;0
23.02.19;22:05:00;1;213;12855;0;2;0;26022;0;0;0;0;3;0;16669;0;0;0;0;4;0;24187;0;0;0;0;5;0;61791;2;0;0;0;0;0;6;0;46998;2;0;0;0;0;0;7;0;40810;0;0;0;0;8;0;39862;0;0;0;0;9;0;21571;0;0;0;0
23.02.19;22:00:00;1;423;12835;0;2;0;26022;0;0;0;0;3;0;16669;0;0;0;0;4;0;24187;0;0;0;0;5;0;61791;2;0;0;0;0;0;6;0;46998;2;0;0;0;0;0;7;0;40810;0;0;0;0;8;0;39862;0;0;0;0;9;0;21571;0;0;0;0
23.02.19;21:55:00;1;341;12793;0;2;0;26022;0;0;0;0;3;0;16669;0;0;0;0;4;0;24187;0;0;0;0;5;0;61791;2;0;0;0;0;0;6;0;46998;2;0;0;0;0;0;7;0;40810;0;0;0;0;8;0;39862;0;0;0;0;9;0;21571;0;0;0;0
23.02.19;21:50:00;1;374;12765;0;2;0;26022;0;0;0;0;3;0;16669;0;0;0;0;4;0;24187;0;0;0;0;5;0;61791;2;0;0;0;0;0;6;0;46998;2;0;0;0;0;0;7;0;40810;0;0;0;0;8;0;39862;0;0;0;0;9;0;21571;0;0;0;0
23.02.19;21:45:00;1;547;12733;0;2;0;26022;0;0;0;0;3;0;16669;0;0;0;0;4;0;24187;0;0;0;0;5;0;61791;2;0;0;0;0;0;6;0;46998;2;0;0;0;0;0;7;0;40810;0;0;0;0;8;0;39862;0;0;0;0;9;0;21571;0;0;0;0
23.02.19;21:40:00;1;1266;12688;0;2;0;26022;0;0;0;0;3;0;16669;0;0;0;0;4;0;24187;0;0;0;0;5;0;61791;2;0;0;0;0;0;6;0;46998;2;0;0;0;0;0;7;0;40810;0;0;0;0;8;0;39862;0;0;0;0;9;0;21571;0;0;0;0
23.02.19;21:35:00;1;497;12616;0;2;0;26022;0;0;0;0;3;0;16669;0;0;0;0;4;0;24187;0;0;0;0;5;0;61791;2;0;0;0;0;0;6;0;46998;2;0;0;0;0;0;7;0;40810;0;0;0;0;8;0;39862;0;0;0;0;9;0;21571;0;0;0;0
23.02.19;21:30:00;1;492;12575;0;2;0;26022;0;0;0;0;3;0;16669;0;0;0;0;4;0;24187;0;0;0;0;5;0;61791;2;0;0;0;0;0;6;0;46998;2;0;0;0;0;0;7;0;40810;0;0;0;0;8;0;39862;0;0;0;0;9;0;21571;0;0;0;0
23.02.19;21:25:00;1;382;12537;0;2;0;26022;0;0;0;0;3;0;16669;0;0;0;0;4;0;24187;0;0;0;0;5;0;61791;2;0;0;0;0;0;6;0;46998;2;0;0;0;0;0;7;0;40810;0;0;0;0;8;0;39862;0;0;0;0;9;0;21571;0;0;0;0
23.02.19;21:20:00;1;727;12503;0;2;0;26022;0;0;0;0;3;0;16669;0;0;0;0;4;0;24187;0;0;0;0;5;0;61791;2;0;0;0;0;0;6;0;46998;2;0;0;0;0;0;7;0;40810;0;0;0;0;8;0;39862;0;0;0;0;9;0;21571;0;0;0;0
23.02.19;21:15:00;1;423;12438;0;2;0;26022;0;0;0;0;3;0;16669;0;0;0;0;4;0;24187;0;0;0;0;5;0;61791;2;0;0;0;0;0;6;0;46998;2;0;0;0;0;0;7;0;40810;0;0;0;0;8;0;39862;0;0;0;0;9;0;21571;0;0;0;0
23.02.19;21:10:00;1;423;12402;0;2;0;26022;0;0;0;0;3;0;16669;0;0;0;0;4;0;24187;0;0;0;0;5;0;61791;2;0;0;0;0;0;6;0;46998;2;0;0;0;0;0;7;0;40810;0;0;0;0;8;0;39862;0;0;0;0;9;0;21571;0;0;0;0
23.02.19;21:05:00;1;417;12367;0;2;0;26022;0;0;0;0;3;0;16669;0;0;0;0;4;0;24187;0;0;0;0;5;0;61791;2;0;0;0;0;0;6;0;46998;2;0;0;0;0;0;7;0;40810;0;0;0;0;8;0;39862;0;0;0;0;9;0;21571;0;0;0;0
23.02.19;21:01:00;1;806;12339;0;2;0;26022;0;0;0;0;3;0;16669;0;0;0;0;4;0;24187;0;0;0;0;5;0;61791;2;0;0;0;0;0;6;0;46998;2;0;0;0;0;0;7;0;40810;0;0;0;0;8;0;39862;0;0;0;0;9;0;21571;0;0;0;0
23.02.19;20:55:00;1;443;12271;0;2;0;26022;0;0;0;0;3;0;16669;0;0;0;0;4;0;24187;0;0;0;0;5;0;61791;2;0;0;0;0;0;6;0;46998;2;0;0;0;0;0;7;0;40810;0;0;0;0;8;0;39862;0;0;0;0;9;0;21571;0;0;0;0
23.02.19;20:50:00;1;464;12233;0;2;0;26022;0;0;0;0;3;0;16669;0;0;0;0;4;0;24187;0;0;0;0;5;0;61791;2;0;0;0;0;0;6;0;46998;2;0;0;0;0;0;7;0;40810;0;0;0;0;8;0;39862;0;0;0;0;9;0;21571;0;0;0;0
23.02.19;20:45:00;1;464;12195;0;2;0;26022;0;0;0;0;3;0;16669;0;0;0;0;4;0;24187;0;0;0;0;5;0;61791;2;0;0;0;0;0;6;0;46998;2;0;0;0;0;0;7;0;40810;0;0;0;0;8;0;39862;0;0;0;0;9;0;21571;0;0;0;0
23.02.19;20:40:00;1;447;12156;0;2;0;26022;0;0;0;0;3;0;16669;0;0;0;0;4;0;24187;0;0;0;0;5;0;61791;2;0;0;0;0;0;6;0;46998;2;0;0;0;0;0;7;0;40810;0;0;0;0;8;0;39862;0;0;0;0;9;0;21571;0;0;0;0
23.02.19;20:35:00;1;656;12104;0;2;0;26022;0;0;0;0;3;0;16669;0;0;0;0;4;0;24187;0;0;0;0;5;0;61791;2;0;0;0;0;0;6;0;46998;2;0;0;0;0;0;7;0;40810;0;0;0;0;8;0;39862;0;0;0;0;9;0;21571;0;0;0;0
23.02.19;20:30:00;1;417;12066;0;2;0;26022;0;0;0;0;3;0;16669;0;0;0;0;4;0;24187;0;0;0;0;5;0;61791;2;0;0;0;0;0;6;0;46998;2;0;0;0;0;0;7;0;40810;0;0;0;0;8;0;39862;0;0;0;0;9;0;21571;0;0;0;0
23.02.19;20:25:00;1;421;12024;0;2;0;26022;0;0;0;0;3;0;16669;0;0;0;0;4;0;24187;0;0;0;0;5;0;61791;2;0;0;0;0;0;6;0;46998;2;0;0;0;0;0;7;0;40810;0;0;0;0;8;0;39862;0;0;0;0;9;0;21571;0;0;0;0
23.02.19;20:20:00;1;423;11989;0;2;0;26022;0;0;0;0;3;0;16669;0;0;0;0;4;0;24187;0;0;0;0;5;0;61791;2;0;0;0;0;0;6;0;46998;2;0;0;0;0;0;7;0;40810;0;0;0;0;8;0;39862;0;0;0;0;9;0;21571;0;0;0;0
23.02.19;20:15:00;1;828;11954;0;2;0;26022;0;0;0;0;3;0;16669;0;0;0;0;4;0;24187;0;0;0;0;5;0;61791;2;0;0;0;0;0;6;0;46998;2;0;0;0;0;0;7;0;40810;0;0;0;0;8;0;39862;0;0;0;0;9;0;21571;0;0;0;0
23.02.19;20:10:00;1;422;11892;0;2;0;26022;0;0;0;0;3;0;16669;0;0;0;0;4;0;24187;0;0;0;0;5;0;61791;2;0;0;0;0;0;6;0;46998;2;0;0;0;0;0;7;0;40810;0;0;0;0;8;0;39862;0;0;0;0;9;0;21571;0;0;0;0
23.02.19;20:05:00;1;423;11857;0;2;0;26022;0;0;0;0;3;0;16669;0;0;0;0;4;0;24187;0;0;0;0;5;0;61791;2;0;0;0;0;0;6;0;46998;2;0;0;0;0;0;7;0;40810;0;0;0;0;8;0;39862;0;0;0;0;9;0;21571;0;0;0;0
23.02.19;20:00:00;1;456;11821;0;2;0;26022;0;0;0;0;3;0;16669;0;0;0;0;4;0;24187;0;0;0;0;5;0;61791;2;0;0;0;0;0;6;0;46998;2;0;0;0;0;0;7;0;40810;0;0;0;0;8;0;39862;0;0;0;0;9;0;21571;0;0;0;0
23.02.19;19:55:00;1;882;11784;0;2;0;26022;0;0;0;0;3;0;16669;0;0;0;0;4;0;24187;0;0;0;0;5;0;61791;2;0;0;0;0;0;6;0;46998;2;0;0;0;0;0;7;0;40810;0;0;0;0;8;0;39862;0;0;0;0;9;0;21571;0;0;0;0
23.02.19;19:50:00;1;487;11719;0;2;0;26022;0;0;0;0;3;0;16669;0;0;0;0;4;0;24187;0;0;0;0;5;0;61791;2;0;0;0;0;0;6;0;46998;2;0;0;0;0;0;7;0;40810;0;0;0;0;8;0;39862;0;0;0;0;9;0;21571;0;0;0;0
23.02.19;19:45:00;1;492;11678;0;2;0;26022;0;0;0;0;3;0;16669;0;0;0;0;4;0;24187;0;0;0;0;5;0;61791;2;0;0;0;0;0;6;0;46998;2;0;0;0;0;0;7;0;40810;0;0;0;0;8;0;39862;0;0;0;0;9;0;21571;0;0;0;0
23.02.19;19:40:00;1;496;11637;0;2;0;26022;0;0;0;0;3;0;16669;0;0;0;0;4;0;24187;0;0;0;0;5;0;61791;2;0;0;0;0;0;6;0;46998;2;0;0;0;0;0;7;0;40810;0;0;0;0;8;0;39862;0;0;0;0;9;0;21571;0;0;0;0
23.02.19;19:35:00;1;496;11596;0;2;0;26022;0;0;0;0;3;0;16669;0;0;0;0;4;0;24187;0;0;0;0;5;0;61791;2;0;0;0;0;0;6;0;46998;2;0;0;0;0;0;7;0;40810;0;0;0;0;8;0;39862;0;0;0;0;9;0;21571;0;0;0;0
23.02.19;19:30:00;1;740;11554;0;2;0;26022;0;0;0;0;3;0;16669;0;0;0;0;4;0;24187;0;0;0;0;5;0;61791;2;0;0;0;0;0;6;0;46998;2;0;0;0;0;0;7;0;40810;0;0;0;0;8;0;39862;0;0;0;0;9;0;21571;0;0;0;0
23.02.19;19:25:00;1;496;11487;0;2;0;26022;0;0;0;0;3;0;16669;0;0;0;0;4;0;24187;0;0;0;0;5;0;61791;2;0;0;0;0;0;6;0;46998;2;0;0;0;0;0;7;0;40810;0;0;0;0;8;0;39862;0;0;0;0;9;0;21571;0;0;0;0
23.02.19;19:20:00;1;489;11446;0;2;0;26022;0;0;0;0;3;0;16669;0;0;0;0;4;0;24187;0;0;0;0;5;0;61791;2;0;0;0;0;0;6;0;46998;2;0;0;0;0;0;7;0;40810;0;0;0;0;8;0;39862;0;0;0;0;9;0;21571;0;0;0;0
23.02.19;19:15:00;1;489;11405;0;2;0;26022;0;0;0;0;3;0;16669;0;0;0;0;4;0;24187;0;0;0;0;5;0;61791;2;0;0;0;0;0;6;0;46998;2;0;0;0;0;0;7;0;40810;0;0;0;0;8;0;39862;0;0;0;0;9;0;21571;0;0;0;0
23.02.19;19:10:00;1;454;11364;0;2;0;26022;0;0;0;0;3;0;16669;0;0;0;0;4;0;24187;0;0;0;0;5;0;61791;2;0;0;0;0;0;6;0;46998;2;0;0;0;0;0;7;0;40810;0;0;0;0;8;0;39862;0;0;0;0;9;0;21571;0;0;0;0
23.02.19;19:05:00;1;1399;11325;0;2;0;26022;0;0;0;0;3;0;16669;0;0;0;0;4;0;24187;0;0;0;0;5;0;61791;2;0;0;0;0;0;6;0;46998;2;0;0;0;0;0;7;0;40810;0;0;0;0;8;0;39862;0;0;0;0;9;0;21571;0;0;0;0
23.02.19;19:00:00;1;469;11262;0;2;0;26022;0;0;0;0;3;0;16669;0;0;0;0;4;0;24187;0;0;0;0;5;0;61791;2;0;0;0;0;0;6;0;46998;2;0;0;0;0;0;7;0;40810;0;0;0;0;8;0;39862;0;0;0;0;9;0;21571;0;0;0;0
23.02.19;18:55:00;1;477;11223;0;2;0;26022;0;0;0;0;3;0;16669;0;0;0;0;4;0;24187;0;0;0;0;5;0;61791;2;0;0;0;0;0;6;0;46998;2;0;0;0;0;0;7;0;40810;0;0;0;0;8;0;39862;0;0;0;0;9;0;21571;0;0;0;0
23.02.19;18:50:00;1;470;11183;0;2;0;26022;0;0;0;0;3;0;16669;0;0;0;0;4;0;24187;0;0;0;0;5;0;61791;2;0;0;0;0;0;6;0;46998;2;0;0;0;0;0;7;0;40810;0;0;0;0;8;0;39862;0;0;0;0;9;0;21571;0;0;0;0
23.02.19;18:45:00;1;469;11144;0;2;0;26022;0;0;0;0;3;0;16669;0;0;0;0;4;0;24187;0;0;0;0;5;0;61791;2;0;0;0;0;0;6;0;46998;2;0;0;0;0;0;7;0;40810;0;0;0;0;8;0;39862;0;0;0;0;9;0;21571;0;0;0;0
23.02.19;18:40:00;1;695;11084;0;2;0;26022;0;0;0;0;3;0;16669;0;0;0;0;4;0;24187;0;0;0;0;5;0;61791;2;0;0;0;0;0;6;0;46998;2;0;0;0;0;0;7;0;40810;0;0;0;0;8;0;39862;0;0;0;0;9;0;21571;0;0;0;0
23.02.19;18:35:00;1;553;11032;0;2;0;26022;0;0;0;0;3;0;16669;0;0;0;0;4;0;24187;0;0;0;0;5;0;61791;2;0;0;0;0;0;6;0;46998;2;0;0;0;0;0;7;0;40810;0;0;0;0;8;0;39862;0;0;0;0;9;0;21571;0;0;0;0
23.02.19;18:30:00;1;593;10984;0;2;0;26022;0;0;0;0;3;0;16669;0;0;0;0;4;0;24187;0;0;0;0;5;0;61791;2;0;0;0;0;0;6;0;46998;2;0;0;0;0;0;7;0;40810;0;0;0;0;8;0;39862;0;0;0;0;9;0;21571;0;0;0;0
23.02.19;18:25:00;1;901;10939;0;2;0;26022;0;0;0;0;3;0;16669;0;0;0;0;4;0;24187;0;0;0;0;5;0;61791;2;0;0;0;0;0;6;0;46998;2;0;0;0;0;0;7;0;40810;0;0;0;0;8;0;39862;0;0;0;0;9;0;21571;0;0;0;0
23.02.19;18:20:00;1;2012;10857;0;2;0;26022;0;0;0;0;3;0;16669;0;0;0;0;4;0;24187;0;0;0;0;5;0;61791;2;0;0;0;0;0;6;0;46998;2;0;0;0;0;0;7;0;40810;0;0;0;0;8;0;39862;0;0;0;0;9;0;21571;0;0;0;0
23.02.19;18:15:00;1;491;10724;0;2;0;26022;0;0;0;0;3;0;16669;0;0;0;0;4;0;24187;0;0;0;0;5;0;61791;2;0;0;0;0;0;6;0;46998;2;0;0;0;0;0;7;0;40810;0;0;0;0;8;0;39862;0;0;0;0;9;0;21571;0;0;0;0
23.02.19;18:10:00;1;502;10683;0;2;0;26022;0;0;0;0;3;0;16669;0;0;0;0;4;0;24187;0;0;0;0;5;0;61791;2;0;0;0;0;0;6;0;46998;2;0;0;0;0;0;7;0;40810;0;0;0;0;8;0;39862;0;0;0;0;9;0;21571;0;0;0;0
23.02.19;18:05:00;1;547;10640;0;2;0;26022;0;0;186;12;3;0;16669;6;0;282;19;4;0;24187;0;0;0;0;5;0;61791;2;0;0;0;0;0;6;0;46998;2;0;0;0;0;0;7;0;40810;0;0;0;0;8;0;39862;0;0;0;0;9;0;21571;0;0;0;0
23.02.19;18:00:00;1;547;10595;0;2;0;26022;6;0;299;17;3;0;16669;6;0;328;19;4;0;24187;0;0;0;0;5;0;61791;2;0;0;0;0;0;6;0;46998;2;0;0;0;0;0;7;0;40810;0;0;0;0;8;0;39862;0;0;0;0;9;0;21571;0;0;0;0
23.02.19;17:55:00;1;711;10549;0;2;0;26022;6;0;335;18;3;0;16669;6;0;406;20;4;0;24187;0;0;50;10;5;0;61791;2;0;1;88;87;7;6;0;46998;2;1;0;22;22;3;7;0;40810;0;0;0;0;8;0;39862;0;0;0;0;9;0;21571;0;0;0;0
23.02.19;17:50:00;1;506;10481;0;2;0;26022;6;0;367;18;3;0;16669;6;2;440;20;4;0;24187;1;0;104;15;5;0;61791;2;0;0;318;316;25;6;0;46998;23;5;5;465;180;23;7;0;40810;0;0;103;8;8;0;39862;0;0;102;7;9;0;21571;0;0;156;7
23.02.19;17:45:00;1;532;10438;0;2;0;26022;6;0;392;19;3;1;16669;6;2;475;20;4;0;24187;1;0;154;15;5;0;61791;23;0;0;415;512;26;6;0;46998;23;2;7;437;307;23;7;0;40810;6;0;325;20;8;0;39862;6;0;320;19;9;0;21571;6;0;325;13
23.02.19;17:40:00;1;497;10394;0;2;3;26022;6;13;387;20;3;2;16669;4;3;492;21;4;0;24187;1;0;200;16;5;8;61791;1;0;0;417;647;27;6;0;46998;23;8;1;215;579;24;7;0;40810;6;0;389;20;8;0;39862;6;0;396;20;9;0;21571;6;0;390;14
23.02.19;17:35:00;1;493;10353;0;2;2;26022;6;8;412;21;3;2;16669;3;9;475;21;4;0;24187;1;0;224;17;5;48;61790;1;0;3;406;644;27;6;0;46998;23;8;2;450;595;24;7;2;40810;6;3;423;21;8;0;39862;6;1;436;20;9;0;21571;6;1;453;14
23.02.19;17:30:00;1;842;10308;0;2;17;26021;6;36;396;22;3;0;16668;6;0;552;22;4;1;24187;3;1;199;17;5;81;61786;4;3;10;390;621;28;6;0;46998;23;7;0;419;604;25;7;0;40810;6;6;454;22;8;2;39862;6;5;433;21;9;0;21571;6;2;480;14
23.02.19;17:25:00;1;522;10244;0;2;122;26020;4;158;358;23;3;33;16668;6;53;536;22;4;54;24187;3;56;204;18;5;123;61778;4;29;25;390;621;28;6;31;46998;1;17;19;390;371;26;7;55;40810;6;79;431;23;8;1;39862;6;7;492;21;9;2;21571;6;3;524;15
23.02.19;17:20:00;1;280;10202;0;2;173;26010;4;210;361;24;3;73;16666;4;121;532;23;4;110;24183;5;115;233;18;5;155;61768;4;46;36;390;621;28;6;59;46995;4;24;20;267;250;27;7;106;40805;4;146;435;23;8;43;39862;4;75;394;22;9;1;21571;6;5;534;15
23.02.19;17:15:00;1;305;10178;0;2;165;25995;4;204;376;24;3;80;16660;4;122;518;24;4;105;24173;5;109;219;19;5;182;61755;4;65;36;390;621;29;6;69;46990;4;33;29;267;250;27;7;119;40796;4;155;485;24;8;58;39858;4;101;451;23;9;0;21571;6;0;571;16
23.02.19;17:10:00;1;604;10151;0;2;162;25981;4;205;390;25;3;84;16653;4;129;510;24;4;93;24165;3;98;215;19;5;208;61740;4;81;78;390;621;29;6;76;46984;4;36;28;267;250;27;7;133;40786;4;173;466;24;8;90;39854;4;127;428;23;9;8;21571;3;18;516;16
23.02.19;17:05:00;1;260;10099;0;2;255;25968;4;300;392;27;3;134;16646;4;170;429;25;4;185;24157;5;193;234;20;5;278;61722;4;113;98;390;621;29;6;121;46978;4;55;53;299;299;27;7;263;40775;4;299;468;25;8;160;39846;4;200;450;24;9;5;21570;6;10;562;17
23.02.19;17:00:00;1;288;10076;0;2;418;25947;4;465;358;28;3;238;16635;4;281;433;26;4;317;24142;5;330;230;21;5;379;61699;4;180;137;400;621;30;6;278;46967;4;128;150;506;511;27;7;486;40754;4;535;475;26;8;256;39833;4;297;447;25;9;12;21569;6;18;556;18
23.02.19;16:55:00;1;218;10057;0;2;1118;25909;4;1189;359;30;3;659;16613;4;720;450;27;4;748;24113;5;779;209;22;5;856;61661;4;423;339;431;656;30;6;653;46938;4;308;326;615;586;27;7;1388;40709;4;1474;499;26;8;642;39810;4;687;373;25;9;47;21567;6;69;547;18
23.02.19;16:50:00;1;218;10039;0;2;1440;25818;4;1525;369;31;3;862;16559;4;927;443;27;4;995;24052;5;1036;232;22;5;1173;61588;4;588;485;438;707;30;6;903;46881;4;438;458;622;588;28;7;1863;40594;4;1966;495;27;8;1122;39758;4;1182;362;26;9;87;21564;4;121;534;19
23.02.19;16:45:00;1;702;10021;0;2;1670;25697;4;1767;369;32;3;1007;16487;4;1075;440;28;4;1177;23969;5;1225;237;23;5;1459;61486;4;727;609;441;720;31;6;1115;46804;4;587;592;627;594;28;7;2183;40440;4;2298;497;28;8;1624;39666;4;1704;403;27;9;98;21556;4;125;442;20
23.02.19;16:40:00;1;218;9976;0;2;1774;25558;4;1876;379;33;3;1048;16403;4;1119;432;28;4;1246;23870;5;1298;234;23;5;1648;61363;4;843;697;441;721;31;6;1255;46710;4;647;659;623;591;28;7;2329;40258;4;2447;494;28;8;1974;39530;4;2070;441;28;9;105;21548;4;136;359;21
23.02.19;16:35:00;1;218;9958;0;2;1933;25410;4;2042;387;35;3;1129;16315;4;1199;435;29;4;1315;23767;5;1370;218;23;5;1929;61225;4;995;819;439;710;31;6;1476;46605;4;744;746;626;593;28;7;2623;40062;4;2748;496;29;8;2387;39365;4;2500;466;28;9;308;21539;4;341;358;22
23.02.19;16:30:00;1;223;9940;0;2;2252;25250;4;2378;404;36;3;1255;16222;4;1327;427;29;4;1449;23657;5;1509;203;24;5;2208;61063;4;1142;942;445;725;32;6;1671;46482;4;850;853;626;597;29;7;2809;39845;4;2955;501;29;8;2638;39168;4;2767;477;29;9;593;21515;4;636;360;23
23.02.19;16:25:00;1;1346;9923;0;2;2418;25099;4;2553;398;37;3;1329;16138;4;1410;433;29;4;1550;23560;5;1615;202;24;5;2477;60911;4;1307;1068;442;712;32;6;1881;46367;4;965;946;623;591;29;7;3063;39658;4;3212;494;29;8;2960;38993;4;3107;489;29;9;1011;21475;4;1067;357;24
23.02.19;16:20:00;1;553;9828;0;2;2557;24859;4;2699;397;37;3;1409;16006;4;1492;435;30;4;1594;23407;5;1661;200;24;5;2782;60663;4;1469;1198;448;707;32;6;2109;46178;4;1072;1062;619;596;29;7;3289;39354;4;3446;486;30;8;3215;38700;4;3379;492;30;9;1251;21378;4;1317;396;26
23.02.19;16:15:00;1;260;9780;0;2;2522;24646;4;2665;397;38;3;1376;15888;4;1457;438;30;4;1508;23273;5;1571;211;25;5;2812;60432;4;1485;1218;445;716;33;6;2135;46001;4;1091;1069;622;589;29;7;3190;39080;4;3351;490;30;8;3139;38433;4;3293;489;30;9;1412;21275;4;1495;459;27
23.02.19;16:10:00;1;274;9759;0;2;2714;24436;4;2862;388;39;3;1513;15774;4;1599;429;30;4;1592;23148;5;1658;200;25;5;3252;60194;4;1730;1406;447;710;33;6;2469;45820;4;1238;1232;617;594;29;7;3601;38814;4;3778;488;31;8;3506;38172;4;3678;484;31;9;1677;21157;4;1780;481;28
23.02.19;16:05:00;1;217;9735;0;2;2757;24209;4;2913;400;40;3;1587;15647;4;1678;436;31;4;1571;23015;5;1637;200;25;5;3421;59924;4;1834;1487;444;713;33;6;2608;45615;4;1377;1345;617;591;30;7;3679;38513;4;3862;489;31;8;3594;37879;4;3774;483;31;9;1826;21017;4;1940;511;29
23.02.19;16:00:00;1;217;9717;0;2;2695;23980;4;2851;402;40;3;1488;15516;4;1573;435;31;4;1358;22884;5;1415;200;26;5;3303;59640;4;1760;1441;444;711;34;6;2526;45398;4;1303;1279;618;586;30;7;3496;38207;4;3674;484;32;8;3440;37580;4;3614;485;32;9;1789;20866;4;1905;531;29
23.02.19;15:55:00;1;465;9696;0;2;2743;23791;4;2899;397;41;3;1516;15411;4;1604;433;31;4;1354;22788;5;1410;208;26;5;3469;59405;4;1855;1515;443;708;34;6;2625;45220;4;1328;1295;613;585;30;7;3521;37962;4;3695;489;32;8;3427;37339;4;3600;478;32;9;1848;20741;4;1960;531;30
23.02.19;15:50:00;1;1519;9653;0;2;2985;23527;4;3154;404;42;3;1625;15265;4;1717;434;32;4;1438;22658;5;1498;221;27;5;3805;59073;4;2027;1668;441;705;35;6;2894;44968;4;1488;1448;610;586;30;7;3756;37621;4;3945;489;33;8;3684;37007;4;3860;482;33;9;2005;20562;4;2129;541;31
23.02.19;15:45:00;1;2337;9499;0;2;3344;23280;4;3537;408;43;3;1827;15130;4;1926;428;33;4;1652;22538;5;1720;207;28;5;4417;58752;4;2370;1944;444;709;35;6;3336;44724;4;1721;1679;612;587;30;7;4202;37311;4;4412;486;33;8;4095;36703;4;4300;486;33;9;2233;20397;4;2369;534;31
23.02.19;15:40:00;1;2396;9304;0;2;3410;23002;4;3610;405;44;3;1856;14979;4;1954;432;33;4;1660;22401;5;1729;209;29;5;4582;58386;4;2470;2012;444;705;35;6;3490;44447;4;1800;1751;616;591;31;7;4331;36962;4;4558;489;34;8;4263;36364;4;4473;484;34;9;2334;20212;4;2477;542;32
23.02.19;15:35:00;1;2614;9103;0;2;3334;22718;4;3531;406;44;3;1780;14824;4;1876;427;33;4;1639;22263;5;1707;229;29;5;4506;58001;4;2430;1978;440;704;36;6;3438;44153;4;1780;1738;608;587;31;7;4168;36603;4;4383;481;34;8;4126;36010;4;4335;481;34;9;2263;20018;4;2403;541;32
23.02.19;15:30:00;1;2432;8878;0;2;3609;22439;4;3814;403;45;3;1935;14674;4;2036;423;34;4;1903;22126;5;1983;228;30;5;5028;57621;4;2724;2221;440;706;36;6;3812;43865;4;1959;1904;610;585;31;7;4549;36252;4;4771;477;34;8;4438;35664;4;4660;468;34;9;2441;19828;4;2593;536;33
23.02.19;15:25:00;1;2503;8675;0;2;3676;22144;4;3889;403;46;3;1980;14516;4;2083;434;34;4;2096;21970;5;2183;242;31;5;5289;57207;4;2866;2319;440;709;36;6;4021;43550;4;2088;2041;611;591;31;7;4687;35881;4;4921;473;35;8;4580;35300;4;4816;481;34;9;2520;19628;4;2668;531;33
23.02.19;15:20:00;1;2582;8468;0;2;3837;21833;4;4065;409;46;3;2067;14348;4;2174;440;35;4;2303;21795;5;2399;243;32;5;5537;56763;4;3018;2446;441;703;37;6;4212;43212;4;2172;2120;612;587;31;7;4847;35483;4;5087;481;35;8;4754;34913;4;4993;471;35;9;2623;19415;4;2776;523;34
23.02.19;15:15:00;1;3164;8252;0;2;3884;21513;4;4107;409;47;3;2137;14177;4;2247;437;35;4;2451;21605;5;2553;244;33;5;5790;56295;4;3158;2557;437;696;37;6;4394;42857;4;2275;2214;607;587;31;7;4966;35082;4;5216;477;35;8;4865;34518;4;5105;471;35;9;2685;19196;4;2843;528;34
23.02.19;15:10:00;1;2614;8001;0;2;3904;21190;4;4128;401;47;3;2151;13999;4;2258;434;36;4;2553;21401;5;2659;241;33;5;5905;55815;4;3213;2627;433;700;37;6;4502;42491;4;2330;2272;607;582;32;7;4999;34668;4;5262;470;36;8;4928;34114;4;5175;477;35;9;2724;18973;4;2888;529;34
23.02.19;15:05:00;1;217;7796;0;2;3912;20864;4;4142;405;47;3;2157;13820;4;2268;433;36;4;2678;21188;5;2789;239;34;5;6042;55319;4;3297;2682;436;695;37;6;4572;42114;4;2373;2307;604;580;32;7;5042;34252;4;5295;475;36;8;4950;33703;4;5199;473;36;9;2747;18746;4;2907;522;35
23.02.19;15:00:00;1;238;7778;0;2;3948;20540;4;4180;403;47;3;2203;13640;4;2321;442;37;4;2870;20966;5;2989;236;35;5;6192;54817;4;3391;2742;431;691;38;6;4699;41731;4;2432;2359;604;579;32;7;5091;33832;4;5350;471;36;8;5011;33291;4;5263;468;36;9;2773;18517;4;2940;518;35
23.02.19;14:55:00;1;574;7758;0;2;4079;20209;4;4310;397;48;3;2317;13457;4;2442;457;37;4;3075;20727;5;3203;239;35;5;6536;54298;4;3577;2900;433;693;38;6;4973;41337;4;2581;2511;602;578;32;7;5277;33407;4;5554;475;36;8;5168;32873;4;5438;467;36;9;2871;18286;4;3040;522;36
23.02.19;14:50:00;1;531;7716;0;2;4118;19870;4;4356;400;48;3;2433;13265;4;2560;465;38;4;3195;20474;5;3328;238;36;5;6698;53753;4;3668;2978;431;686;38;6;5094;40922;4;2630;2553;601;575;32;7;5388;32970;4;5663;469;37;8;5276;32444;4;5547;471;37;9;2928;18048;4;3100;525;36
23.02.19;14:45:00;1;217;7694;0;2;4152;19527;4;4386;401;48;3;2580;13063;4;2719;494;39;4;3320;20207;5;3459;238;36;5;6866;53194;4;3768;3053;431;687;38;6;5211;40497;4;2679;2604;596;574;32;7;5474;32521;4;5755;471;37;8;5362;32003;4;5635;475;37;9;2980;17804;4;3152;524;36
23.02.19;14:40:00;1;241;7676;0;2;4148;19181;4;4379;393;48;3;2654;12848;4;2800;505;39;4;3361;19932;5;3501;231;37;5;6951;52621;4;3813;3085;429;683;39;6;5287;40062;4;2725;2651;593;576;32;7;5500;32065;4;5781;469;37;8;5410;31558;4;5682;470;37;9;2994;17556;4;3168;526;37